DELTA 1 DEB, 21602

Orbit data source: Space-Track

DELTA 1 DEB, 21602 is space debris in SSO originally from a launch on Thu, 12 Jun 1975 UTC launched from the Air Force Western Test Range (AFWTR). Debris objects in space refer to the collection of defunct objects orbiting the Earth. Examples of debris include non-operational satellites, rocket bodies, and fragments generated from explosions, collisions, or faulty payload assembly.

Loading next visibility...
Identifier
21602, 1975-052HW
Orbit
SSO
Country
Flag of USUS
Related business
Manufacturer
Unknown
Mission
Spacecraft
Bus & Motor
Unknown
Mass
Unknown
Launch date (UTC)
1975-06-12 (51 years ago)
Launch vehicle
Unknown
Launch site
Air Force Western Test Range (AFWTR)
Object type
Payload
Rocket body
Debris
Shape & HBR
Unknown shape, 0.1 m
Radar Cross Section
Small (<0.1 m²)

Expand to show TLE details & history
Last TLE update: 11 hours ago

TLE from 11 hours ago
0 DELTA 1 DEB
1 21602U 75052HW  25354.01368105  .00001660  00000-0  22748-2 0  9991
2 21602  99.6527  23.1990 0079978 256.8278 164.1864 13.58975999678852
Epoch: 2025-12-20T00:19Z
TLE epoch observation values (Epoch: 2025-12-20T00:19:42.042Z)
Latitude
59.90909°
Longitude
-87.55152°
Altitude
1,106.643 km
Speed
7.276 km/s
True Right ascension
00h 24m 52s
True Declination
59° 45' 60"
Sunlit
Object was in daylight at epoch
Visualization orbit readout
Latitude
Unknown
Longitude
Unknown
Altitude
Unknown
Speed
Unknown
Apparent Right ascension
Unknown
Apparent Declination
Unknown
Sunlit
N/A
Visualization observer readout
Local Sidereal Time
10:44:25
Azimuth
Unknown
Elevation
Unknown
Doppler factor
Unknown
Orbital elements
Apogee altitude
1,096.005 km
Perigee altitude
977.4 km
Semi-major axis
7,414.84 km
Eccentricity
0.008
Inclination
99.6527°
RAAN
23.199°
Arg. of periapsis
256.8278°
True anomaly
164.43377°
Mean anomaly
164.1864°
Eccentric anomaly
164.31032°
Mean motion
3.39931 °/min
Orbital period
105.9 mins
BSTAR
0.0022748
Loading maneuver chart data...
Computing Atmospheric mass density...
Loading historical data...
Loading historical data...
Loading historical data...
Loading historical data...
Loading historical data...
Loading historical data...
Loading historical data...

Documentation

Showing up to 5 results
|